Tracking 20093 objects as of 16-Dec-2019
HD Live streaming from Space Station
objects crossing your sky now

IRIDIUM 33 DEB

Track IRIDIUM 33 DEB now!
10-day predictions


NORAD ID: 35632
Int'l Code: 1997-051RE
Perigee: 745.1 km
Apogee: 880.9 km
Inclination: 86.4 °
Period: 101.0 minutes
Semi major axis: 7183 km
RCS: 0.0098 m2 (small)
Launch date: September 14, 1997
Source: United States (US)
Launch site: TYURATAM MISSILE AND SPACE COMPLEX (TTMTR)

Note: This is SATELLITE DEBRIS
aabbcc
Your satellite tracking list
Your tracking list is empty




NASA's NSSDC Master Catalog

Two Line Element Set (TLE):
1 35632U 97051RE  19349.67217724 +.00002299 +00000-0 +91588-3 0  9999
2 35632 086.4257 330.1069 0094491 138.8899 221.9463 14.25786055543482
Source of the keplerian elements: AFSPC